AAL2791 KSEA-KCLT

Flight info

Callsign AAL2791
Flight time N/A
Altitude 31000
Route SEA1 SEA ZADON ZELAK ZIRAN ZAXBY KU21O KU18U KP06A ABR KP81G MCW MONNY BDF EMEGE ROYYZ TAFTT PARQR4
Aircraft A321/M-SDE3FGHIRWY/LB1

Departure

Time 2026-05-06 01:48
Airport Seattle–Tacoma International Airport (KSEA)

Arrival

Time N/A
Airport Charlotte Douglas International Airport (KCLT)
Time Latitude Longitude Altitude Speed Heading
2026-05-06 01:05 47.44692 -122.29929 406 ft 0 kts 190°
2026-05-06 01:36 47.44704 -122.29926 403 ft 4 kts 178°
2026-05-06 01:36 47.44729 -122.29935 404 ft 4 kts 150°
2026-05-06 01:36 47.44750 -122.29957 407 ft 4 kts 137°
2026-05-06 01:36 47.44770 -122.29983 406 ft 4 kts 149°
2026-05-06 01:37 47.44785 -122.29992 406 ft 0 kts 193°
2026-05-06 01:39 47.44778 -122.29994 408 ft 2 kts 195°
2026-05-06 01:40 47.44756 -122.30006 407 ft 4 kts 201°
2026-05-06 01:40 47.44724 -122.30036 405 ft 7 kts 220°
2026-05-06 01:40 47.44689 -122.30096 406 ft 8 kts 233°
2026-05-06 01:40 47.44675 -122.30183 405 ft 9 kts 279°
2026-05-06 01:41 47.44701 -122.30271 403 ft 9 kts 303°
2026-05-06 01:41 47.44738 -122.30339 407 ft 8 kts 312°
2026-05-06 01:41 47.44771 -122.30394 405 ft 7 kts 312°
2026-05-06 01:41 47.44800 -122.30448 404 ft 7 kts 291°
2026-05-06 01:42 47.44806 -122.30534 407 ft 10 kts 269°
2026-05-06 01:42 47.44835 -122.30624 404 ft 11 kts 338°
2026-05-06 01:42 47.44908 -122.30628 408 ft 11 kts
2026-05-06 01:42 47.44976 -122.30628 411 ft 10 kts 359°
2026-05-06 01:43 47.45051 -122.30627 410 ft 12 kts
2026-05-06 01:43 47.45137 -122.30625 410 ft 12 kts 360°
2026-05-06 01:43 47.45215 -122.30625 416 ft 11 kts 360°
2026-05-06 01:43 47.45291 -122.30625 420 ft 11 kts
2026-05-06 01:44 47.45376 -122.30624 418 ft 13 kts
2026-05-06 01:44 47.45480 -122.30622 421 ft 16 kts
2026-05-06 01:44 47.45599 -122.30621 422 ft 18 kts
2026-05-06 01:44 47.45724 -122.30622 428 ft 17 kts 360°
2026-05-06 01:45 47.45843 -122.30620 438 ft 17 kts
2026-05-06 01:45 47.45954 -122.30619 429 ft 15 kts 360°
2026-05-06 01:45 47.46057 -122.30620 432 ft 15 kts 360°
2026-05-06 01:45 47.46157 -122.30616 432 ft 14 kts
2026-05-06 01:46 47.46225 -122.30615 430 ft 14 kts
2026-05-06 01:46 47.46318 -122.30615 431 ft 12 kts
2026-05-06 01:46 47.46377 -122.30678 433 ft 11 kts 277°
2026-05-06 01:46 47.46338 -122.30769 433 ft 11 kts 204°
2026-05-06 01:47 47.46255 -122.30777 431 ft 13 kts 180°
2026-05-06 01:47 47.46031 -122.30777 431 ft 64 kts 180°
2026-05-06 01:47 47.45362 -122.30786 414 ft 126 kts 180°
2026-05-06 01:47 47.44306 -122.30799 403 ft 175 kts 181°
2026-05-06 01:48 47.43089 -122.30817 1007 ft 172 kts 180°
2026-05-06 01:48 47.41889 -122.30770 1567 ft 174 kts 170°
2026-05-06 01:48 47.40776 -122.30053 2072 ft 179 kts 145°
2026-05-06 01:48 47.39811 -122.28829 2218 ft 192 kts 136°
2026-05-06 01:49 47.39104 -122.27110 2322 ft 206 kts 101°
2026-05-06 01:49 47.39204 -122.24790 2263 ft 252 kts 70°
2026-05-06 01:49 47.40049 -122.22357 2498 ft 284 kts 56°
2026-05-06 01:49 47.41109 -122.19948 3716 ft 276 kts 57°
2026-05-06 01:50 47.42095 -122.17511 4765 ft 277 kts 61°
2026-05-06 01:50 47.42980 -122.14956 5682 ft 281 kts 63°
2026-05-06 01:50 47.43837 -122.12333 6539 ft 285 kts 64°
2026-05-06 01:50 47.44691 -122.09673 7351 ft 289 kts 64°
2026-05-06 01:51 47.45806 -122.06194 8343 ft 294 kts 63°
2026-05-06 01:51 47.46685 -122.03453 9062 ft 297 kts 63°
2026-05-06 01:51 47.47575 -122.00673 9654 ft 301 kts 63°
2026-05-06 01:51 47.48477 -121.97871 10188 ft 302 kts 63°
2026-05-06 01:52 47.49402 -121.95020 10328 ft 320 kts 63°
2026-05-06 01:52 47.50065 -121.92982 10431 ft 331 kts 63°
2026-05-06 01:52 47.51427 -121.88786 10611 ft 352 kts 63°
2026-05-06 01:52 47.52380 -121.85847 10756 ft 363 kts 63°
2026-05-06 01:53 47.53481 -121.82436 11161 ft 369 kts 63°
2026-05-06 01:53 47.54211 -121.80162 11506 ft 370 kts 63°
2026-05-06 01:53 47.55549 -121.75451 12244 ft 373 kts 71°
2026-05-06 01:53 47.55950 -121.72969 12620 ft 375 kts 78°
2026-05-06 01:54 47.56176 -121.69098 13116 ft 380 kts 88°
2026-05-06 01:54 47.56123 -121.65162 13601 ft 384 kts 88°
2026-05-06 01:54 47.56067 -121.61208 14077 ft 387 kts 88°
2026-05-06 01:54 47.56011 -121.57219 14619 ft 389 kts 88°
2026-05-06 01:55 47.55958 -121.53210 15120 ft 391 kts 87°
2026-05-06 01:55 47.55906 -121.49155 15544 ft 396 kts 87°
2026-05-06 01:55 47.55850 -121.45066 15986 ft 399 kts 87°
2026-05-06 01:55 47.55790 -121.40948 16431 ft 402 kts 86°
2026-05-06 01:56 47.55729 -121.36800 16872 ft 404 kts 86°
2026-05-06 01:56 47.55670 -121.32627 17300 ft 407 kts 86°
2026-05-06 01:56 47.55606 -121.28426 17734 ft 410 kts 86°
2026-05-06 01:56 47.55538 -121.24190 18133 ft 413 kts 86°
2026-05-06 01:57 47.55465 -121.19926 18524 ft 415 kts 86°
2026-05-06 01:57 47.55389 -121.15642 18891 ft 418 kts 86°
2026-05-06 01:57 47.55313 -121.11334 19213 ft 419 kts 86°
2026-05-06 01:57 47.55237 -121.07016 19581 ft 422 kts 86°
2026-05-06 01:58 47.55160 -121.02660 19945 ft 424 kts 86°
2026-05-06 01:58 47.55081 -120.98280 20317 ft 425 kts 86°
2026-05-06 01:58 47.55000 -120.93900 20631 ft 427 kts 85°
2026-05-06 01:58 47.54925 -120.89915 20940 ft 430 kts 85°
2026-05-06 01:59 47.54838 -120.85486 21225 ft 433 kts 86°
2026-05-06 01:59 47.54751 -120.81027 21478 ft 435 kts 86°
2026-05-06 01:59 47.54662 -120.76528 21712 ft 439 kts 86°
2026-05-06 01:59 47.54568 -120.72009 21999 ft 440 kts 85°
2026-05-06 02:00 47.54472 -120.67471 22266 ft 441 kts 85°
2026-05-06 02:00 47.54373 -120.62928 22599 ft 443 kts 85°
2026-05-06 02:00 47.54272 -120.58423 22890 ft 445 kts 85°
2026-05-06 02:00 47.54166 -120.53837 23182 ft 447 kts 85°
2026-05-06 02:01 47.54055 -120.49182 23493 ft 448 kts 85°
2026-05-06 02:01 47.53946 -120.44563 23711 ft 450 kts 85°
2026-05-06 02:01 47.53843 -120.39977 23937 ft 452 kts 85°
2026-05-06 02:01 47.53760 -120.35248 24185 ft 455 kts 85°
2026-05-06 02:02 47.53698 -120.30619 24449 ft 457 kts 84°
2026-05-06 02:02 47.53640 -120.25841 24750 ft 459 kts 84°
2026-05-06 02:02 47.53582 -120.21123 25029 ft 460 kts 85°
2026-05-06 02:02 47.53516 -120.16378 25295 ft 461 kts 85°
2026-05-06 02:03 47.53442 -120.11622 25511 ft 463 kts 85°
2026-05-06 02:03 47.53362 -120.06914 25730 ft 465 kts 85°
2026-05-06 02:03 47.53276 -120.02121 25974 ft 466 kts 85°
2026-05-06 02:03 47.53190 -119.97316 26232 ft 467 kts 85°
2026-05-06 02:04 47.53105 -119.92501 26447 ft 468 kts 85°
2026-05-06 02:04 47.53019 -119.87679 26658 ft 470 kts 85°
2026-05-06 02:04 47.52930 -119.82835 26881 ft 472 kts 85°
2026-05-06 02:04 47.52837 -119.77974 27107 ft 472 kts 85°
2026-05-06 02:05 47.52740 -119.73106 27331 ft 473 kts 85°
2026-05-06 02:05 47.52640 -119.68232 27548 ft 475 kts 85°
2026-05-06 02:05 47.52539 -119.63355 27849 ft 474 kts 85°
2026-05-06 02:05 47.52436 -119.58492 28150 ft 473 kts 85°
2026-05-06 02:06 47.52330 -119.53634 28476 ft 472 kts 85°
2026-05-06 02:06 47.52224 -119.48848 28767 ft 470 kts 85°
2026-05-06 02:06 47.52116 -119.44011 29075 ft 469 kts 85°
2026-05-06 02:06 47.52005 -119.39196 29402 ft 468 kts 85°
2026-05-06 02:07 47.51891 -119.34397 29685 ft 466 kts 85°
2026-05-06 02:07 47.51779 -119.29599 29938 ft 466 kts 85°
2026-05-06 02:07 47.51671 -119.24805 30196 ft 466 kts 85°
2026-05-06 02:07 47.51560 -119.20022 30446 ft 465 kts 85°
2026-05-06 02:08 47.51446 -119.15251 30702 ft 464 kts 85°
2026-05-06 02:08 47.51326 -119.10485 30856 ft 463 kts 85°
2026-05-06 02:08 47.51073 -119.01022 30900 ft 459 kts 85°
2026-05-06 02:09 47.50824 -118.91603 30897 ft 458 kts 84°
2026-05-06 02:09 47.50570 -118.82200 30897 ft 458 kts 84°
2026-05-06 02:10 47.50304 -118.72790 30897 ft 458 kts 84°
2026-05-06 02:10 47.50019 -118.63391 30899 ft 458 kts 84°
2026-05-06 02:11 47.49732 -118.53976 30902 ft 458 kts 84°
2026-05-06 02:11 47.49462 -118.44621 30921 ft 458 kts 84°
2026-05-06 02:12 47.49173 -118.35188 30933 ft 459 kts 84°
2026-05-06 02:12 47.48857 -118.25751 30929 ft 459 kts 84°
2026-05-06 02:13 47.48538 -118.16310 30938 ft 459 kts 84°
2026-05-06 02:13 47.48219 -118.06875 30941 ft 459 kts 84°
2026-05-06 02:14 47.47896 -117.97446 30950 ft 460 kts 84°
2026-05-06 02:14 47.47561 -117.88012 30954 ft 459 kts 84°
2026-05-06 02:15 47.47213 -117.78580 30957 ft 459 kts 84°
2026-05-06 02:15 47.46868 -117.69590 30956 ft 459 kts 84°
2026-05-06 02:16 47.46995 -117.60305 30953 ft 443 kts 71°
2026-05-06 02:16 47.48575 -117.51696 30949 ft 432 kts 63°